Flag for U.S.A. Weather past 2 weeks in New Salem, North Dakota, U.S.A.

Now
57 °F

Clear.


Feels Like: 55 °F
Forecast: 47 / 62 °F
Wind: 10 mph from West

Location: Bismarck Municipal Airport

Current Time: Oct 22, 2014 at 8:15:26 AM

Latest Report: Oct 22, 2014 at 6:52 AM


Visibility: 10 mi

Pressure: 29.76 "Hg

Humidity: 69%

Dew point: 47 °F

Location of New SalemLocation

Historic Weather in New Salem — Graph

°F

New Salem temperature yesterday

Maximum temperature yesterday: 81 °F (at 3:52 PM)
Minimum temperature yesterday: 46 °F (at 7:52 AM)
Average temperature yesterday: 64 °F

Past Weeks' High & Low Weather Summary

 TemperatureHumidityPressure
High81 °F (Oct 21, 3:52 PM)97% (Oct 19, 6:52 AM)30.37 "Hg (Oct 19, 6:52 AM)
Low22 °F (Oct 10, 5:52 AM)25% (Oct 15, 2:52 PM)29.46 "Hg (Oct 16, 2:52 AM)
Average51 °F62%29.96 "Hg
* Reported Oct 7 6:52 AM — Oct 22 6:52 AM, New Salem, Weather by CustomWeather, © 2014

Note: Actual official high and low records may vary slightly from our data, if they occured in-between our weather recording intervals... More about our weather records

Advertising

New Salem weather history for previous 24 hours

 ConditionsComfort  
Time TempWeatherWind HumidityBarometerVisibility
6:52 AM
Oct 22
57 °FClear.10 mph69%29.76 "Hg10 mi
5:52 AM55 °FClear.7 mph77%29.72 "Hg10 mi
4:52 AM56 °FClear.No wind72%29.68 "Hg10 mi
3:52 AM58 °FClear.7 mph70%29.66 "Hg10 mi
2:52 AM65 °FPassing clouds.15 mph54%29.65 "Hg10 mi
1:52 AM65 °FClear.18 mph51%29.64 "Hg10 mi
12:52 AM65 °FClear.20 mph44%29.64 "Hg10 mi
11:52 PM
Oct 21
66 °FClear.22 mph37%29.65 "Hg10 mi
10:52 PM66 °FClear.18 mph36%29.66 "Hg10 mi
9:52 PM66 °FClear.15 mph40%29.67 "Hg10 mi
8:52 PM67 °FClear.12 mph42%29.67 "Hg10 mi
7:52 PM72 °FClear.18 mph37%29.67 "Hg10 mi
6:52 PM76 °FSunny.16 mph36%29.65 "Hg10 mi
5:52 PM81 °FSunny.21 mph33%29.64 "Hg10 mi
4:52 PM81 °FSunny.17 mph33%29.64 "Hg10 mi
3:52 PM81 °FSunny.14 mph29%29.66 "Hg10 mi
2:52 PM80 °FSunny.24 mph29%29.66 "Hg10 mi
1:52 PM74 °FSunny.12 mph36%29.71 "Hg10 mi
12:52 PM71 °FSunny.15 mph36%29.74 "Hg10 mi
11:52 AM64 °FSunny.15 mph43%29.78 "Hg10 mi
10:52 AM59 °FSunny.15 mph49%29.81 "Hg10 mi
9:52 AM55 °FSunny.9 mph55%29.84 "Hg10 mi
8:52 AM48 °FClear.8 mph68%29.85 "Hg10 mi
Weather by CustomWeather, © 2014

See weather overviewHow to use our weather pages